When you browse on this site, cookies collect data to enhance your experience and personalize the content and advertising you see.
Visit our Privacy Policy to learn more. By continuing to use the site, you agree to this use of cookies and data.
  • In Romania
  • List of Countries
  • For 7 days
  • Water Temperature
  • Satellite Maps
  • Weather Map
  • Weather Widgets
  • user-avatar
    Login

    Hourly Weather Manchester

    Today, 20 February, Wednesday

    Time Temperature Precipitation Wind Pressure Humidity
    00:00 -12°C° 0 mm 2 mps 768 mmHg 73%
    01:00 -11°C° 0 mm 1 mps 768 mmHg 74%
    02:00 -11°C° 0 mm 1 mps 768 mmHg 74%
    03:00 -11°C° 0 mm 1 mps 768 mmHg 74%
    04:00 -11°C° 0 mm 1 mps 768 mmHg 74%
    05:00 -11°C° 0 mm 1 mps 768 mmHg 74%
    06:00 -11°C° 0 mm 1 mps 768 mmHg 74%
    07:00 -11°C° 0 mm 1 mps 769 mmHg 74%
    08:00 -9°C° 0 mm 1 mps 768 mmHg 69%
    09:00 -7°C° 0 mm 1 mps 768 mmHg 63%
    10:00 -4°C° 0 mm 1 mps 768 mmHg 57%
    11:00 -3°C° 0 mm 1 mps 767 mmHg 54%
    12:00 -2°C° 0 mm 1 mps 767 mmHg 52%
    13:00 -1°C° 0 mm 1 mps 766 mmHg 49%
    14:00 -2°C° 0 mm 2 mps 766 mmHg 51%
    15:00 -2°C° 0 mm 2 mps 765 mmHg 54%
    16:00 -2°C° 0 mm 2 mps 765 mmHg 56%
    17:00 -3°C° 0 mm 2 mps 764 mmHg 61%
    18:00 -1°C° 0 mm 1 mps 763 mmHg 67%
    19:00 -2°C° 0 mm 1 mps 763 mmHg 72%
    20:00 -2°C° 0.1 mm 1 mps 762 mmHg 75%
    21:00 -4°C° 0.1 mm 2 mps 762 mmHg 78%
    22:00 -5°C° 0.1 mm 2 mps 762 mmHg 81%
    23:00 -5°C° 1.6 mm 2 mps 760 mmHg 86%

    Tomorrow, 21 February, Thursday

    Time Temperature Precipitation Wind Pressure Humidity
    00:00 -5°C° 1.6 mm 2 mps 759 mmHg 91%
    01:00 -5°C° 1.6 mm 2 mps 757 mmHg 96%
    02:00 -4°C° 1.5 mm 2 mps 756 mmHg 96%
    03:00 -3°C° 1.5 mm 2 mps 754 mmHg 96%
    04:00 -1°C° 1.5 mm 1 mps 752 mmHg 96%
    05:00 0°C° 0.6 mm 1 mps 751 mmHg 96%
    06:00 +1°C° 0.6 mm 1 mps 750 mmHg 97%
    07:00 +1°C° 0.6 mm 1 mps 749 mmHg 97%
    08:00 +3°C° 0 mm 1 mps 749 mmHg 97%
    09:00 +3°C° 0 mm 2 mps 748 mmHg 97%
    10:00 +5°C° 0 mm 2 mps 748 mmHg 97%
    11:00 +4°C° 0 mm 3 mps 748 mmHg 90%
    12:00 +5°C° 0 mm 5 mps 748 mmHg 84%
    13:00 +5°C° 0 mm 6 mps 748 mmHg 77%
    14:00 +4°C° 0 mm 6 mps 748 mmHg 76%
    15:00 +3°C° 0 mm 5 mps 749 mmHg 75%
    16:00 +2°C° 0 mm 5 mps 749 mmHg 75%
    17:00 +1°C° 0 mm 5 mps 750 mmHg 76%
    18:00 0°C° 0 mm 4 mps 751 mmHg 78%
    19:00 -1°C° 0 mm 4 mps 751 mmHg 80%
    20:00 -1°C° 0 mm 4 mps 752 mmHg 79%
    21:00 -1°C° 0 mm 4 mps 752 mmHg 79%
    22:00 -2°C° 0 mm 4 mps 753 mmHg 79%
    23:00 -2°C° 0 mm 4 mps 753 mmHg 79%

    Day after tomorrow, 22 February, Friday

    Time Temperature Precipitation Wind Pressure Humidity
    00:00 -2°C° 0 mm 4 mps 754 mmHg 79%
    01:00 -2°C° 0 mm 4 mps 754 mmHg 78%
    02:00 -2°C° 0 mm 4 mps 755 mmHg 79%
    03:00 -2°C° 0 mm 3 mps 756 mmHg 81%
    04:00 -2°C° 0 mm 3 mps 757 mmHg 82%
    05:00 -4°C° 0 mm 3 mps 757 mmHg 83%
    06:00 -4°C° 0 mm 3 mps 758 mmHg 85%
    07:00 -4°C° 0 mm 2 mps 759 mmHg 86%
    08:00 -2°C° 0 mm 3 mps 760 mmHg 80%
    09:00 -2°C° 0 mm 4 mps 760 mmHg 75%
    10:00 -1°C° 0 mm 4 mps 761 mmHg 69%
    11:00 0°C° 0 mm 4 mps 761 mmHg 68%
    12:00 +1°C° 0 mm 4 mps 761 mmHg 68%
    13:00 +1°C° 0 mm 4 mps 761 mmHg 67%
    14:00 +1°C° 0 mm 4 mps 761 mmHg 68%
    15:00 +2°C° 0 mm 3 mps 762 mmHg 70%
    16:00 +1°C° 0 mm 3 mps 762 mmHg 71%
    17:00 +1°C° 0 mm 2 mps 763 mmHg 76%
    18:00 -1°C° 0 mm 2 mps 763 mmHg 82%
    19:00 -1°C° 0 mm 1 mps 764 mmHg 87%
    20:00 -1°C° 0 mm 1 mps 764 mmHg 87%
    21:00 -1°C° 0 mm 1 mps 765 mmHg 87%
    22:00 -4°C° 0 mm 2 mps 765 mmHg 87%
    23:00 -2°C° 0 mm 1 mps 765 mmHg 87%

    23 February, Saturday

    Time Temperature Precipitation Wind Pressure Humidity
    00:00 -3°C° 0 mm 1 mps 766 mmHg 87%
    01:00 -3°C° 0 mm 1 mps 766 mmHg 87%
    02:00 -3°C° 0 mm 1 mps 766 mmHg 87%
    03:00 -3°C° 0 mm 1 mps 766 mmHg 87%
    04:00 -4°C° 0 mm 1 mps 766 mmHg 87%
    05:00 -4°C° 0 mm 1 mps 766 mmHg 87%
    06:00 -4°C° 0 mm 1 mps 766 mmHg 86%
    07:00 -5°C° 0 mm 0 mps 766 mmHg 86%
    08:00 -2°C° 0 mm 1 mps 766 mmHg 79%
    09:00 0°C° 0 mm 1 mps 766 mmHg 73%
    10:00 +2°C° 0 mm 1 mps 765 mmHg 67%
    11:00 +3°C° 0 mm 1 mps 765 mmHg 65%
    12:00 +3°C° 0 mm 2 mps 764 mmHg 64%
    13:00 +4°C° 0 mm 2 mps 763 mmHg 62%
    14:00 +4°C° 0 mm 2 mps 762 mmHg 66%
    15:00 +4°C° 0 mm 2 mps 762 mmHg 69%
    16:00 +4°C° 0 mm 2 mps 761 mmHg 73%
    17:00 +2°C° 0 mm 2 mps 760 mmHg 79%
    18:00 +1°C° 0 mm 2 mps 760 mmHg 85%
    19:00 -1°C° 0 mm 2 mps 759 mmHg 91%
    20:00 -1°C° 0.1 mm 2 mps 759 mmHg 92%
    21:00 -1°C° 0.1 mm 2 mps 758 mmHg 94%
    22:00 +2°C° 0.1 mm 1 mps 757 mmHg 95%
    23:00 +2°C° 1.1 mm 1 mps 756 mmHg 96%

    24 February, Sunday

    Time Temperature Precipitation Wind Pressure Humidity
    00:00 +2°C° 1.1 mm 1 mps 754 mmHg 97%
    01:00 +2°C° 1.1 mm 1 mps 753 mmHg 98%
    02:00 +2°C° 1.9 mm 1 mps 751 mmHg 98%
    03:00 +2°C° 1.9 mm 1 mps 750 mmHg 98%
    04:00 +2°C° 1.9 mm 1 mps 748 mmHg 98%
    05:00 +3°C° 0.5 mm 1 mps 747 mmHg 98%
    06:00 +3°C° 0.5 mm 1 mps 746 mmHg 98%
    07:00 +4°C° 0.5 mm 1 mps 744 mmHg 98%
    08:00 +4°C° 0.3 mm 1 mps 743 mmHg 98%
    09:00 +4°C° 0.3 mm 1 mps 742 mmHg 98%
    10:00 +4°C° 0.3 mm 1 mps 741 mmHg 98%
    11:00 +5°C° 0.3 mm 1 mps 739 mmHg 98%
    12:00 +6°C° 0.3 mm 1 mps 737 mmHg 97%
    13:00 +6°C° 0.3 mm 2 mps 736 mmHg 97%
    14:00 +7°C° 0.3 mm 2 mps 735 mmHg 94%
    15:00 +9°C° 0.3 mm 3 mps 734 mmHg 92%
    16:00 +10°C° 0.3 mm 4 mps 733 mmHg 89%
    17:00 +7°C° 0 mm 4 mps 733 mmHg 86%
    18:00 +5°C° 0 mm 4 mps 733 mmHg 82%
    19:00 +3°C° 0 mm 5 mps 733 mmHg 79%
    20:00 +2°C° 0 mm 5 mps 733 mmHg 78%
    21:00 +2°C° 0 mm 5 mps 733 mmHg 77%
    22:00 +1°C° 0 mm 6 mps 733 mmHg 76%
    23:00 +1°C° 0 mm 6 mps 733 mmHg 74%

    25 February, Monday

    Time Temperature Precipitation Wind Pressure Humidity
    00:00 -1°C° 0 mm 7 mps 733 mmHg 72%
    01:00 -1°C° 0 mm 7 mps 733 mmHg 69%
    02:00 -2°C° 0 mm 8 mps 734 mmHg 68%
    03:00 -2°C° 0 mm 8 mps 734 mmHg 66%
    04:00 -2°C° 0 mm 8 mps 734 mmHg 65%
    05:00 -4°C° 0 mm 8 mps 736 mmHg 63%
    06:00 -4°C° 0 mm 8 mps 737 mmHg 61%
    07:00 -5°C° 0 mm 8 mps 738 mmHg 60%
    08:00 -5°C° 0 mm 9 mps 739 mmHg 56%
    09:00 -4°C° 0 mm 10 mps 741 mmHg 53%
    10:00 -4°C° 0 mm 10 mps 742 mmHg 50%
    11:00 -4°C° 0 mm 10 mps 743 mmHg 48%
    12:00 -4°C° 0 mm 10 mps 745 mmHg 47%
    13:00 -4°C° 0 mm 10 mps 746 mmHg 46%
    14:00 -4°C° 0 mm 10 mps 747 mmHg 47%
    15:00 -5°C° 0 mm 10 mps 749 mmHg 48%
    16:00 -6°C° 0 mm 9 mps 751 mmHg 48%
    17:00 -8°C° 0 mm 9 mps 752 mmHg 49%
    18:00 -9°C° 0 mm 9 mps 754 mmHg 49%
    19:00 -10°C° 0 mm 8 mps 756 mmHg 49%
    20:00 -11°C° 0 mm 8 mps 757 mmHg 50%
    21:00 -12°C° 0 mm 8 mps 758 mmHg 50%
    22:00 -13°C° 0 mm 8 mps 759 mmHg 50%
    23:00 -13°C° 0 mm 8 mps 760 mmHg 48%
    Show more